Regional Weather Roundup
Issued by NWS Tiyan, Guam

Home | Current Version | Previous Version | Text Only | Print | Product List | Glossary On
Versions: 1 2 3 4 5 6 7 8 9 10 11 12 13 14 15 16 17 18 19 20 21 22 23 24 25 26 27 28 29 30 31 32 33 34 35 36 37 38 39 40 41 42 43 44 45 46 47 48 49 50
000
ASGM40 PGUM 242312
RWRGUM
WEATHER ROUNDUP FOR THE MARIANAS
NATIONAL WEATHER SERVICE TIYAN GU
900 AM CHST SUN JUN 25 2017

GUZ001>004-250000-
MARIANA ISLANDS-

CITY           SKY/WX    TMP DP  RH WIND       PRES   REMARKS
GUAM AIRPORT   SUNNY     81  79  94 N7        29.81F
ANDERSEN AFB   DRIZZLE   79  77  94 N6        29.82F
ROTA AIRPORT   PTSUNNY   81  77  89 E10       29.81F
TINIAN AP      PTSUNNY   81  77  89 E14       29.81S
SAIPAN AP      MOSUNNY   84  77  79 E15       29.82R HX  94

$$




USA.gov is the U.S. government's official web portal to all federal, state and local government web resources and services.